Location: Newark
(43.0658°N, 122.2322°W)
Time: 07:57:23
(UTC+00:00)

STARLINK-1673 - Pass Details

Date: 21 September 2020
Orbit: 549 x 551 km, 53.0° (Epoch: 29 October)

Event Time Altitude Azimuth Distance (km) Brightness Sun altitude
Exits shadow 12:15:10 14° 320° (NW) 1,588 5.8 -18.8°
Maximum altitude 12:17:25 20° 360° (N) 1,295 5.7 -18.5°
Drops below altitude 10° 12:20:35 10° 49° (NE) 1,836 7.3 -17.9°
Sets 12:23:17 0° 66° (ENE) 2,731 8.9 -17.4°
